When you browse on this site, cookies collect data to enhance your experience and personalize the content and advertising you see.
Visit our Privacy Policy to learn more. By continuing to use the site, you agree to this use of cookies and data.
  • In Spain
  • List of Countries
  • For 7 days
  • Water Temperature
  • Satellite Maps
  • Weather Map
  • Weather Widgets
  • user-avatar
    Login

    Hourly Weather Saurimo

    Today, 24 July, Wednesday

    Time Temperature Precipitation Wind Pressure Humidity
    00:00 +17°C° 0 mm 2 mps 670 mmHg 32%
    01:00 +17°C° 0 mm 2 mps 670 mmHg 33%
    02:00 +16°C° 0 mm 2 mps 670 mmHg 34%
    03:00 +15°C° 0 mm 2 mps 670 mmHg 34%
    04:00 +14°C° 0 mm 2 mps 669 mmHg 35%
    05:00 +15°C° 0 mm 2 mps 670 mmHg 34%
    06:00 +16°C° 0 mm 2 mps 670 mmHg 32%
    07:00 +16°C° 0 mm 3 mps 671 mmHg 30%
    08:00 +20°C° 0 mm 3 mps 672 mmHg 25%
    09:00 +25°C° 0 mm 3 mps 672 mmHg 20%
    10:00 +29°C° 0 mm 4 mps 673 mmHg 14%
    11:00 +31°C° 0 mm 3 mps 673 mmHg 12%
    12:00 +33°C° 0 mm 3 mps 673 mmHg 10%
    13:00 +35°C° 0 mm 2 mps 672 mmHg 9%
    14:00 +34°C° 0 mm 2 mps 672 mmHg 9%
    15:00 +34°C° 0 mm 2 mps 671 mmHg 9%
    16:00 +32°C° 0 mm 2 mps 671 mmHg 9%
    17:00 +29°C° 0 mm 2 mps 670 mmHg 12%
    18:00 +26°C° 0 mm 1 mps 670 mmHg 15%
    19:00 +22°C° 0 mm 1 mps 670 mmHg 17%
    20:00 +21°C° 0 mm 1 mps 670 mmHg 19%
    21:00 +20°C° 0 mm 1 mps 670 mmHg 20%
    22:00 +18°C° 0 mm 2 mps 670 mmHg 21%
    23:00 +18°C° 0 mm 2 mps 670 mmHg 22%

    Tomorrow, 25 July, Thursday

    Time Temperature Precipitation Wind Pressure Humidity
    00:00 +17°C° 0 mm 2 mps 670 mmHg 22%
    01:00 +17°C° 0 mm 2 mps 670 mmHg 23%
    02:00 +16°C° 0 mm 2 mps 670 mmHg 23%
    03:00 +15°C° 0 mm 2 mps 669 mmHg 24%
    04:00 +15°C° 0 mm 2 mps 669 mmHg 24%
    05:00 +16°C° 0 mm 2 mps 670 mmHg 24%
    06:00 +16°C° 0 mm 3 mps 671 mmHg 23%
    07:00 +17°C° 0 mm 3 mps 671 mmHg 23%
    08:00 +22°C° 0 mm 4 mps 672 mmHg 19%
    09:00 +27°C° 0 mm 4 mps 673 mmHg 16%
    10:00 +32°C° 0 mm 4 mps 674 mmHg 12%
    11:00 +33°C° 0 mm 4 mps 673 mmHg 11%
    12:00 +34°C° 0 mm 3 mps 673 mmHg 10%
    13:00 +36°C° 0 mm 3 mps 673 mmHg 9%
    14:00 +35°C° 0 mm 2 mps 672 mmHg 9%
    15:00 +35°C° 0 mm 2 mps 671 mmHg 9%
    16:00 +35°C° 0 mm 2 mps 671 mmHg 9%
    17:00 +30°C° 0 mm 2 mps 670 mmHg 12%
    18:00 +27°C° 0 mm 2 mps 670 mmHg 15%
    19:00 +24°C° 0 mm 1 mps 670 mmHg 17%
    20:00 +23°C° 0 mm 2 mps 670 mmHg 18%
    21:00 +20°C° 0 mm 2 mps 670 mmHg 19%
    22:00 +19°C° 0 mm 2 mps 671 mmHg 21%
    23:00 +19°C° 0 mm 2 mps 670 mmHg 21%

    Day after tomorrow, 26 July, Friday

    Time Temperature Precipitation Wind Pressure Humidity
    00:00 +18°C° 0 mm 2 mps 670 mmHg 21%
    01:00 +17°C° 0 mm 2 mps 670 mmHg 21%
    02:00 +17°C° 0 mm 2 mps 670 mmHg 21%
    03:00 +17°C° 0 mm 3 mps 670 mmHg 20%
    04:00 +16°C° 0 mm 3 mps 670 mmHg 20%
    05:00 +17°C° 0 mm 3 mps 670 mmHg 19%
    06:00 +17°C° 0 mm 3 mps 671 mmHg 18%
    07:00 +18°C° 0 mm 4 mps 671 mmHg 17%
    08:00 +22°C° 0 mm 4 mps 672 mmHg 15%
    09:00 +26°C° 0 mm 4 mps 673 mmHg 13%
    10:00 +30°C° 0 mm 4 mps 674 mmHg 11%
    11:00 +33°C° 0 mm 4 mps 673 mmHg 10%
    12:00 +34°C° 0 mm 3 mps 673 mmHg 9%
    13:00 +36°C° 0 mm 3 mps 672 mmHg 8%
    14:00 +35°C° 0 mm 3 mps 672 mmHg 8%
    15:00 +35°C° 0 mm 3 mps 671 mmHg 8%
    16:00 +35°C° 0 mm 2 mps 671 mmHg 8%
    17:00 +30°C° 0 mm 2 mps 670 mmHg 10%
    18:00 +27°C° 0 mm 2 mps 670 mmHg 13%
    19:00 +24°C° 0 mm 2 mps 670 mmHg 15%
    20:00 +23°C° 0 mm 2 mps 670 mmHg 16%
    21:00 +21°C° 0 mm 2 mps 670 mmHg 17%
    22:00 +19°C° 0 mm 2 mps 670 mmHg 18%
    23:00 +19°C° 0 mm 2 mps 670 mmHg 19%

    27 July, Saturday

    Time Temperature Precipitation Wind Pressure Humidity
    00:00 +18°C° 0 mm 2 mps 670 mmHg 20%
    01:00 +17°C° 0 mm 2 mps 669 mmHg 20%
    02:00 +17°C° 0 mm 3 mps 669 mmHg 21%
    03:00 +16°C° 0 mm 3 mps 669 mmHg 21%
    04:00 +16°C° 0 mm 3 mps 669 mmHg 22%
    05:00 +16°C° 0 mm 3 mps 670 mmHg 23%
    06:00 +17°C° 0 mm 3 mps 671 mmHg 23%
    07:00 +17°C° 0 mm 4 mps 671 mmHg 24%
    08:00 +21°C° 0 mm 4 mps 672 mmHg 20%
    09:00 +26°C° 0 mm 4 mps 672 mmHg 17%
    10:00 +29°C° 0 mm 4 mps 673 mmHg 14%
    11:00 +32°C° 0 mm 4 mps 673 mmHg 12%
    12:00 +34°C° 0 mm 3 mps 672 mmHg 10%
    13:00 +36°C° 0 mm 2 mps 672 mmHg 8%
    14:00 +36°C° 0 mm 2 mps 671 mmHg 8%
    15:00 +35°C° 0 mm 2 mps 671 mmHg 8%
    16:00 +35°C° 0 mm 2 mps 670 mmHg 8%
    17:00 +31°C° 0 mm 2 mps 670 mmHg 11%
    18:00 +27°C° 0 mm 2 mps 670 mmHg 14%
    19:00 +24°C° 0 mm 2 mps 669 mmHg 17%
    20:00 +23°C° 0 mm 2 mps 670 mmHg 17%
    21:00 +21°C° 0 mm 2 mps 670 mmHg 18%
    22:00 +20°C° 0 mm 2 mps 670 mmHg 19%
    23:00 +19°C° 0 mm 2 mps 670 mmHg 20%

    28 July, Sunday

    Time Temperature Precipitation Wind Pressure Humidity
    00:00 +19°C° 0 mm 2 mps 669 mmHg 21%
    01:00 +18°C° 0 mm 2 mps 669 mmHg 22%
    02:00 +17°C° 0 mm 2 mps 669 mmHg 23%
    03:00 +16°C° 0 mm 2 mps 669 mmHg 24%
    04:00 +16°C° 0 mm 2 mps 669 mmHg 25%
    05:00 +16°C° 0 mm 3 mps 669 mmHg 25%
    06:00 +17°C° 0 mm 3 mps 670 mmHg 26%
    07:00 +17°C° 0 mm 3 mps 670 mmHg 26%
    08:00 +21°C° 0 mm 3 mps 671 mmHg 22%
    09:00 +26°C° 0 mm 3 mps 672 mmHg 19%
    10:00 +29°C° 0 mm 3 mps 673 mmHg 15%
    11:00 +31°C° 0 mm 3 mps 672 mmHg 13%
    12:00 +35°C° 0 mm 2 mps 672 mmHg 11%
    13:00 +37°C° 0 mm 2 mps 672 mmHg 9%
    14:00 +36°C° 0 mm 2 mps 671 mmHg 9%
    15:00 +36°C° 0 mm 2 mps 671 mmHg 9%
    16:00 +34°C° 0 mm 1 mps 670 mmHg 9%
    17:00 +31°C° 0 mm 1 mps 670 mmHg 12%
    18:00 +28°C° 0 mm 1 mps 670 mmHg 14%
    19:00 +24°C° 0 mm 1 mps 669 mmHg 17%
    20:00 +23°C° 0 mm 1 mps 670 mmHg 18%
    21:00 +22°C° 0 mm 1 mps 670 mmHg 19%
    22:00 +20°C° 0 mm 2 mps 670 mmHg 20%
    23:00 +20°C° 0 mm 2 mps 670 mmHg 21%

    29 July, Monday

    Time Temperature Precipitation Wind Pressure Humidity
    00:00 +19°C° 0 mm 2 mps 669 mmHg 21%
    01:00 +19°C° 0 mm 2 mps 669 mmHg 22%
    02:00 +19°C° 0 mm 1 mps 669 mmHg 24%
    03:00 +18°C° 0 mm 1 mps 669 mmHg 25%
    04:00 +16°C° 0 mm 1 mps 669 mmHg 27%
    05:00 +16°C° 0 mm 1 mps 669 mmHg 27%
    06:00 +18°C° 0 mm 1 mps 670 mmHg 26%
    07:00 +18°C° 0 mm 1 mps 671 mmHg 26%
    08:00 +23°C° 0 mm 1 mps 672 mmHg 22%
    09:00 +27°C° 0 mm 2 mps 672 mmHg 17%
    10:00 +31°C° 0 mm 2 mps 673 mmHg 13%
    11:00 +34°C° 0 mm 2 mps 673 mmHg 11%
    12:00 +36°C° 0 mm 1 mps 672 mmHg 10%
    13:00 +39°C° 0 mm 1 mps 672 mmHg 8%
    14:00 +37°C° 0 mm 1 mps 671 mmHg 8%
    15:00 +36°C° 0 mm 1 mps 671 mmHg 9%
    16:00 +33°C° 0 mm 0 mps 670 mmHg 9%
    17:00 +30°C° 0 mm 0 mps 670 mmHg 12%
    18:00 +26°C° 0 mm 0 mps 669 mmHg 14%
    19:00 +22°C° 0 mm 0 mps 669 mmHg 17%
    20:00 +21°C° 0 mm 0 mps 669 mmHg 18%
    21:00 +20°C° 0 mm 0 mps 669 mmHg 19%
    22:00 +20°C° 0 mm 0 mps 669 mmHg 19%
    23:00 +21°C° 0 mm 1 mps 669 mmHg 20%
    Show more